Weather History for Silver City, NM

Change the Weather History Date:

Friday, October 18, 2013

  Actual Average (KDMN) Record (KDMN)
Temperature  
Mean Temperature 53 °F 61 °F  
Max Temperature 71 °F 77 °F 88 °F (1991)
Min Temperature 35 °F 45 °F 28 °F (1966)
Degree Days  
Heating Degree Days 12    
Growing Degree Days 3 (Base 50)    
Moisture  
Dew Point 13 °F    
Average Humidity 21    
Maximum Humidity 41    
Minimum Humidity 9    
Precipitation  
Precipitation 0.00 in 0.04 in 0.45 in (2002)
Month to date precipitation 0.72  
Year to date precipitation 9.61  
Sea Level Pressure  
Sea Level Pressure 30.09 in    
Wind  
Wind Speed 12 mph (NW)    
Max Wind Speed 20 mph    
Max Gust Speed 28 mph    
Visibility 10 miles    
Events Thunderstorm    
T = Trace of Precipitation, MM = Missing Value Source: NWS Daily Summary

Daily Weather History Graph

Daily Weather History Graph

Search for Another Location

Airport:

Trip Planner

Search our weather history database for the weather conditions in past years. The results will help you decide how hot, cold, wet, or windy it might be!

Date:

Astronomy

Oct. 18, 2013 Rise Set
Actual Time 7:19 AM MDT 6:35 PM MDT
Civil Twilight 6:54 AM MDT 7:00 PM MDT
Nautical Twilight 6:25 AM MDT 7:29 PM MDT
Astronomical Twilight 5:56 AM MDT 7:57 PM MDT
Moon 6:29 PM MDT (10/18) 6:57 AM MDT (10/18)
Length of Visible Light 12h 06m
Length of Day
11h 16m
Full, 100% of the Moon is Illuminated
Oct 18
Full
Oct 18
Full
Oct 26
Last Quarter
Nov 3
New
Nov 9
First Quarter

Hourly Weather History & Observations

Time (MDT) Temp. Windchill Dew Point Humidity Pressure Visibility Wind Dir Wind Speed Gust Speed Precip Events Conditions
12:15 AM 46.4 °F 40.7 °F 10.4 °F 23% 30.05 in 10.0 mi North 12.7 mph - N/A   Clear
12:35 AM 44.6 °F 40.2 °F 10.4 °F 25% 30.05 in 10.0 mi NW 8.1 mph - N/A   Clear
12:55 AM 42.8 °F 36.6 °F 10.4 °F 27% 30.04 in 10.0 mi NNW 11.5 mph - N/A   Clear
1:15 AM 41.0 °F 35.2 °F 12.2 °F 31% 30.04 in 10.0 mi NNW 9.2 mph - N/A   Clear
1:35 AM 44.6 °F 38.8 °F 12.2 °F 27% 30.04 in 10.0 mi NNW 11.5 mph - N/A   Clear
1:55 AM 44.6 °F 38.1 °F 10.4 °F 25% 30.04 in 10.0 mi NNW 13.8 mph - N/A   Clear
2:15 AM 46.4 °F 40.4 °F 10.4 °F 23% 30.05 in 10.0 mi NW 13.8 mph - N/A   Clear
2:35 AM 44.6 °F 38.1 °F 10.4 °F 25% 30.05 in 10.0 mi NW 13.8 mph - N/A   Clear
2:55 AM 44.6 °F 38.1 °F 10.4 °F 25% 30.05 in 10.0 mi NW 13.8 mph - N/A   Clear
3:15 AM 44.6 °F 38.1 °F 10.4 °F 25% 30.05 in 10.0 mi NW 13.8 mph - N/A   Clear
3:35 AM 44.6 °F 38.8 °F 10.4 °F 25% 30.05 in 10.0 mi NNW 11.5 mph - N/A   Clear
3:55 AM 44.6 °F 38.8 °F 10.4 °F 25% 30.04 in 10.0 mi NW 11.5 mph - N/A   Clear
4:15 AM 41.0 °F 34.7 °F 10.4 °F 29% 30.05 in 10.0 mi NW 10.4 mph - N/A   Clear
4:35 AM 41.0 °F 34.3 °F 10.4 °F 29% 30.05 in 10.0 mi NNW 11.5 mph - N/A   Clear
4:55 AM 39.2 °F 32.5 °F 12.2 °F 33% 30.05 in 10.0 mi NW 10.4 mph - N/A   Clear
5:15 AM 39.2 °F 32.5 °F 12.2 °F 33% 30.05 in 10.0 mi NW 10.4 mph - N/A   Clear
5:35 AM 39.2 °F 32.5 °F 12.2 °F 33% 30.06 in 10.0 mi NW 10.4 mph - N/A   Clear
5:55 AM 39.2 °F 31.6 °F 12.2 °F 33% 30.06 in 10.0 mi NNW 12.7 mph - N/A   Clear
6:15 AM 39.2 °F 31.2 °F 14.0 °F 36% 30.06 in 10.0 mi NNW 13.8 mph - N/A   Clear
6:35 AM 39.2 °F 32.0 °F 14.0 °F 36% 30.06 in 10.0 mi NNW 11.5 mph - N/A   Clear
6:55 AM 37.4 °F 30.3 °F 14.0 °F 38% 30.07 in 10.0 mi NNW 10.4 mph - N/A Thunderstorm Clear
7:15 AM 37.4 °F 29.8 °F 14.0 °F 38% 30.07 in 10.0 mi NNW 11.5 mph - N/A   Clear
7:35 AM 35.6 °F 27.1 °F 14.0 °F 41% 30.08 in 10.0 mi NW 12.7 mph - N/A   Clear
7:55 AM 41.0 °F 35.2 °F 15.8 °F 36% 30.09 in 10.0 mi NW 9.2 mph - N/A   Clear
8:15 AM 46.4 °F 42.4 °F 15.8 °F 29% 30.09 in 10.0 mi NW 8.1 mph - N/A   Clear
8:35 AM 50.0 °F - 15.8 °F 26% 30.10 in 10.0 mi WNW 6.9 mph - N/A   Clear
8:55 AM 50.0 °F - 15.8 °F 26% 30.10 in 10.0 mi WNW 9.2 mph - N/A   Clear
9:15 AM 55.4 °F - 17.6 °F 23% 30.11 in 10.0 mi WNW 6.9 mph - N/A   Clear
9:35 AM 59.0 °F - 17.6 °F 20% 30.12 in 10.0 mi WNW 11.5 mph - N/A   Clear
9:55 AM 59.0 °F - 17.6 °F 20% 30.12 in 10.0 mi NW 9.2 mph - N/A   Clear
10:15 AM 60.8 °F - 17.6 °F 19% 30.12 in 10.0 mi WNW 6.9 mph - N/A   Clear
10:35 AM 62.6 °F - 17.6 °F 18% 30.12 in 10.0 mi West 4.6 mph - N/A   Clear
10:55 AM 62.6 °F - 17.6 °F 18% 30.12 in 10.0 mi NW 5.8 mph - N/A   Clear
11:15 AM 64.4 °F - 17.6 °F 16% 30.11 in 10.0 mi WSW 5.8 mph - N/A   Clear
11:35 AM 66.2 °F - 17.6 °F 15% 30.11 in 10.0 mi North 3.5 mph - N/A   Clear
11:55 AM 66.2 °F - 15.8 °F 14% 30.11 in 10.0 mi NW 6.9 mph - N/A   Clear
12:15 PM 68.0 °F - 17.6 °F 15% 30.10 in 10.0 mi NW 10.4 mph - N/A   Clear
12:35 PM 68.0 °F - 15.8 °F 13% 30.10 in 10.0 mi West 8.1 mph - N/A   Clear
12:55 PM 68.0 °F - 15.8 °F 13% 30.09 in 10.0 mi NW 11.5 mph 16.1 mph N/A Thunderstorm Clear
1:15 PM 68.0 °F - 14.0 °F 12% 30.08 in 10.0 mi NW 11.5 mph 20.7 mph N/A   Clear
1:35 PM 68.0 °F - 12.2 °F 12% 30.07 in 10.0 mi WNW 11.5 mph - N/A   Clear
1:55 PM 69.8 °F - 14.0 °F 12% 30.06 in 10.0 mi WNW 13.8 mph 17.3 mph N/A   Clear
2:15 PM 69.8 °F - 12.2 °F 11% 30.06 in 10.0 mi West 15.0 mph 21.9 mph N/A   Clear
2:35 PM 69.8 °F - 14.0 °F 12% 30.06 in 10.0 mi WNW 13.8 mph 20.7 mph N/A   Clear
2:55 PM 69.8 °F - 12.2 °F 11% 30.05 in 10.0 mi WNW 18.4 mph 21.9 mph N/A   Clear
3:15 PM 71.6 °F - 12.2 °F 10% 30.05 in 10.0 mi WNW 16.1 mph 19.6 mph N/A   Clear
3:35 PM 71.6 °F - 10.4 °F 9% 30.05 in 10.0 mi West 15.0 mph 24.2 mph N/A   Clear
3:55 PM 71.6 °F - 12.2 °F 10% 30.05 in 10.0 mi WNW 18.4 mph 24.2 mph N/A   Clear
4:15 PM 71.6 °F - 12.2 °F 10% 30.05 in 10.0 mi WNW 16.1 mph 21.9 mph N/A   Clear
4:35 PM 71.6 °F - 14.0 °F 11% 30.05 in 10.0 mi WNW 18.4 mph 27.6 mph N/A   Clear
4:55 PM 71.6 °F - 12.2 °F 10% 30.06 in 10.0 mi WNW 17.3 mph 20.7 mph N/A Thunderstorm Clear
5:15 PM 71.6 °F - 12.2 °F 10% 30.06 in 10.0 mi WNW 19.6 mph 23.0 mph N/A   Clear
5:35 PM 69.8 °F - 14.0 °F 12% 30.06 in 10.0 mi WNW 17.3 mph - N/A   Clear
5:55 PM 68.0 °F - 14.0 °F 12% 30.06 in 10.0 mi NW 16.1 mph - N/A   Clear
6:15 PM 68.0 °F - 14.0 °F 12% 30.07 in 10.0 mi NW 13.8 mph - N/A   Clear
6:35 PM 64.4 °F - 14.0 °F 14% 30.08 in 10.0 mi NW 12.7 mph - N/A   Clear
6:55 PM 62.6 °F - 14.0 °F 15% 30.09 in 10.0 mi NW 12.7 mph - N/A   Clear
7:15 PM 59.0 °F - 14.0 °F 17% 30.10 in 10.0 mi NW 10.4 mph - N/A Thunderstorm Clear
7:35 PM 57.2 °F - 15.8 °F 20% 30.12 in 10.0 mi NE 6.9 mph - N/A   Clear
7:55 PM 57.2 °F - 15.8 °F 20% 30.13 in 10.0 mi NE 6.9 mph - N/A   Clear
8:15 PM 57.2 °F - 15.8 °F 20% 30.14 in 10.0 mi NNE 15.0 mph - N/A Thunderstorm Clear
8:35 PM 59.0 °F - 15.8 °F 19% 30.15 in 10.0 mi NNE 12.7 mph - N/A   Clear
8:55 PM 55.4 °F - 15.8 °F 21% 30.16 in 10.0 mi North 13.8 mph - N/A   Clear
9:15 PM 50.0 °F - 14.0 °F 24% 30.16 in 10.0 mi North 10.4 mph - N/A   Clear
9:35 PM 48.2 °F - 12.2 °F 24% 30.16 in 10.0 mi NNW 11.5 mph - N/A   Clear
9:55 PM 50.0 °F - 10.4 °F 20% 30.16 in 10.0 mi North 10.4 mph - N/A   Clear
10:15 PM 46.4 °F 42.9 °F 10.4 °F 23% 30.16 in 10.0 mi NNW 6.9 mph - N/A   Clear
10:35 PM 44.6 °F 40.2 °F 8.6 °F 23% 30.17 in 10.0 mi NNW 8.1 mph - N/A Thunderstorm Clear
10:55 PM 46.4 °F 40.4 °F 6.8 °F 20% 30.17 in 10.0 mi North 13.8 mph - N/A   Clear
11:15 PM 50.0 °F - 6.8 °F 17% 30.17 in 10.0 mi North 13.8 mph - N/A   Clear
11:35 PM 48.2 °F - 8.6 °F 20% 30.17 in 10.0 mi North 15.0 mph - N/A   Clear
11:55 PM 46.4 °F 40.4 °F 8.6 °F 22% 30.16 in 10.0 mi North 13.8 mph - N/A   Clear